Terug naar catalogus

VANGUARD R/B

ActiefUNKNOWN
NORAD 16·ROCKET BODY·🇺🇸 United States

Gelanceerd Mar 17, 1958 vanaf Cape Canaveral Space Force Station

Loading…

Volgende Passages (komende 24 uur)

TLE

VersSource: Space-Track

Epoch: Sep 14, 2026, 10:33 UTC

1 00016U 58002A   26257.44009749  .00000188  00000-0  27662-3 0  9994
2 00016  34.2613  47.0346 2016319 137.4312 240.1509 10.49622212698299

Volg VANGUARD R/B in realtime met AllMySat

Download on the App Store